Lapse_Rate
4.4 4.7 4.4 3.5 3.8 4.2 4.2 4.3 4.8 5.1 6.1 6.3 6.8 6.4 5.3 5.7 5.6 6.7 5.3 5.2 4.4 4.0 3.9 3.9 3.9 3.9 3.8 3.5 3.7 5.4 6.8 5.9
4.7 4.4 4.9 5.2 5.5 4.4 4.7 4.5 4.8 4.5 5.3 5.5 6.1 5.4 5.2 5.4 5.4 6.1 5.2 5.3 4.4 4.1 3.9 3.9 3.9 3.7 3.6 3.5 3.6 5.3 6.7 6.2
6.2 4.9 4.3 4.1 4.4 6.0 5.2 5.1 5.0 4.8 4.6 4.6 4.6 4.9 4.7 4.5 4.9 5.7 5.2 5.3 4.5 4.4 3.9 3.9 3.8 3.9 3.9 3.6 4.8 6.5 6.7 6.5
2.3 4.7 5.7 4.9 5.0 5.2 6.3 6.7 6.4 6.7 7.3 5.6 5.5 4.6 4.6 3.8 4.8 5.2 5.2 5.3 4.8 4.4 3.6 3.8 5.3 6.0 5.4 4.3 6.4 6.2 6.6 6.4
0.2 -0.2 0.7 5.2 6.3 5.7 5.5 6.0 5.9 6.1 6.7 6.3 5.4 5.1 5.0 4.5 5.0 5.0 6.0 5.8 6.5 5.4 4.5 6.7 6.5 6.2 6.3 6.2 5.9 6.2 6.6 6.9
-0.3 0.6 0.6 3.0 5.7 5.9 5.9 6.0 5.8 6.2 6.2 6.3 5.6 4.8 4.8 4.6 5.1 4.8 6.1 6.6 6.5 6.0 7.0 6.4 5.9 5.6 5.2 5.5 5.8 6.2 6.4 6.5
0.7 1.5 1.5 1.0 4.4 5.6 5.5 5.9 5.6 5.8 5.7 6.0 5.7 5.3 4.6 4.7 4.8 4.9 6.0 5.9 6.5 6.4 6.7 5.9 4.7 5.3 5.2 5.4 5.4 5.8 5.9 6.2
0.7 1.8 2.5 1.1 1.3 5.7 5.3 5.6 5.5 5.4 5.0 5.6 5.5 5.0 4.8 4.9 4.8 4.7 6.1 5.4 6.2 6.5 5.9 4.8 4.5 4.8 5.3 5.6 5.5 5.5 5.6 5.5
2.3 1.8 2.4 1.2 0.8 4.7 5.0 5.8 4.9 5.1 5.2 5.2 4.9 4.8 4.7 4.5 4.4 4.7 5.7 5.2 5.6 5.3 4.6 4.3 3.8 4.8 5.9 5.6 5.6 5.7 5.7 5.5
3.9 3.7 2.4 1.3 0.6 0.7 5.1 5.2 5.0 4.9 5.1 5.1 4.8 4.8 4.5 4.4 4.2 4.7 5.5 5.1 4.7 4.6 3.8 3.5 3.9 4.6 6.2 6.3 6.2 5.9 5.6 5.4
4.5 4.0 2.9 1.6 0.5 1.0 3.6 5.3 4.9 5.1 4.9 4.8 5.1 4.7 4.8 4.7 4.0 4.5 4.7 5.0 5.4 4.8 4.0 4.3 3.5 4.9 6.6 6.1 5.9 6.1 5.7 5.7
5.4 3.7 3.1 2.1 0.8 0.4 1.5 5.2 5.4 5.2 4.8 5.1 5.2 4.9 4.8 4.5 4.3 4.0 4.8 5.3 5.2 5.1 4.7 4.4 3.8 3.7 6.0 5.7 5.0 5.3 6.0 6.1
5.9 3.9 2.7 2.7 -0.0 -0.2 0.2 0.3 5.2 5.2 5.0 5.5 5.1 4.9 4.6 4.8 4.6 4.0 4.1 4.4 4.4 5.6 4.5 4.7 4.2 4.5 3.7 4.3 4.7 4.7 5.5 6.7
7.2 6.0 4.2 3.7 2.6 0.4 0.8 0.7 1.6 5.6 5.3 5.3 5.4 5.3 4.7 4.5 4.0 3.8 4.0 4.0 4.4 5.0 4.9 5.4 4.7 4.1 5.2 4.3 5.2 5.0 5.8 5.1
9.0 7.9 5.9 4.7 2.9 1.7 0.9 1.3 3.5 5.2 5.2 5.2 5.5 4.8 4.2 4.3 4.4 4.0 4.0 3.5 4.3 4.6 5.7 5.5 4.9 4.4 4.7 4.9 5.9 6.4 6.2 6.4
9.3 8.5 6.8 5.3 3.3 1.9 1.2 1.1 1.0 2.2 5.3 4.8 4.9 4.8 4.4 4.3 4.1 3.9 3.8 5.0 5.5 5.0 5.1 4.9 4.7 4.9 4.7 5.5 6.1 6.6 8.0 6.4
9.5 9.0 7.9 6.4 4.5 3.0 2.2 1.7 0.8 0.3 2.6 5.3 5.1 4.8 4.8 4.3 4.1 4.3 4.5 5.5 6.3 5.6 5.4 4.7 4.5 4.9 5.2 5.4 5.4 5.9 5.7 6.9
9.4 9.3 8.6 7.4 5.3 4.1 3.0 2.1 1.3 0.4 1.5 4.1 5.3 5.5 4.9 4.4 3.9 4.1 5.0 6.1 6.4 5.4 5.6 5.7 5.0 5.1 6.3 6.5 6.1 7.1 6.1 6.8
9.4 9.3 8.5 7.2 6.7 5.7 4.1 3.2 2.1 1.5 1.3 2.3 4.0 5.3 4.9 4.6 4.2 3.7 5.0 5.4 6.1 6.4 5.8 6.2 6.3 6.3 6.3 5.5 5.9 6.8 6.9 4.6
9.2 9.2 9.0 7.4 6.6 6.5 5.4 3.4 3.2 2.3 1.0 1.0 1.7 4.5 6.6 4.9 4.7 4.0 3.8 5.7 5.8 6.1 6.1 6.7 6.3 6.9 6.2 5.6 4.8 5.3 5.8 5.3
Wind_Speed
3 5 6 5 7 8 10 12 14 18 22 23 24 25 25 22 17 20 22 25 27 25 25 24 24 24 23 23 22 19 17 17
6 4 2 5 7 10 11 11 13 14 16 18 23 23 21 16 14 20 25 24 26 25 26 24 24 23 23 23 22 19 17 17
8 7 6 6 7 8 12 11 12 13 10 20 26 21 22 20 12 21 26 25 25 25 25 24 23 22 22 23 20 14 15 13
15 11 7 9 7 9 9 11 12 12 12 21 18 19 19 21 12 20 26 26 24 25 25 26 24 20 18 18 12 15 12 13
16 13 20 9 8 8 8 9 9 8 10 18 17 17 16 18 13 17 22 25 23 23 24 22 19 18 17 12 15 14 12 13
18 17 11 15 9 5 7 7 9 8 8 17 16 11 12 13 11 13 18 21 20 19 18 17 17 17 17 15 14 13 12 13
18 16 13 10 11 6 5 5 8 11 12 15 17 12 8 12 8 12 15 16 17 15 16 17 14 16 17 15 14 13 14 13
20 19 15 16 13 8 5 6 9 11 12 13 14 14 12 11 10 11 12 14 16 15 14 12 12 13 15 14 14 13 13 14
20 19 19 14 13 10 5 7 9 7 10 16 15 17 16 14 9 8 14 15 15 13 13 14 10 11 11 14 13 13 13 14
20 17 18 17 13 11 5 8 9 8 12 13 14 16 18 14 9 10 14 15 14 9 8 8 7 7 10 9 10 12 13 14
20 20 20 20 15 11 9 9 7 10 13 15 15 15 19 15 10 14 19 14 9 8 8 10 8 7 10 9 8 8 13 13
20 17 20 19 10 11 9 6 8 12 9 12 17 16 17 11 14 14 19 11 10 8 11 10 10 9 8 8 7 7 10 11
22 21 21 15 12 11 6 5 6 6 8 15 15 18 18 17 6 11 13 11 13 11 9 13 7 9 8 6 5 5 6 7
21 21 20 15 11 10 5 8 9 8 6 9 16 18 20 13 11 11 15 11 14 15 7 9 6 11 7 5 3 2 5 7
20 20 19 16 17 11 10 8 5 5 7 9 11 13 13 17 15 12 13 12 12 15 13 18 12 9 11 5 4 4 6 7
20 20 19 17 17 14 15 7 9 5 8 9 7 13 14 18 16 13 14 11 14 10 16 8 13 12 10 2 4 8 5 4
19 20 19 19 16 14 10 12 8 9 11 8 11 11 14 16 15 15 15 11 14 15 14 10 9 9 9 5 4 5 4 3
20 21 20 20 19 15 14 15 13 11 10 7 7 8 7 12 14 16 14 13 13 13 15 12 10 10 10 11 8 7 5 3
20 22 20 19 18 18 15 14 13 13 12 8 10 7 7 9 13 13 11 13 14 13 16 16 17 14 15 10 9 9 5 3
22 22 21 19 18 19 14 15 9 8 10 9 8 9 11 12 12 14 17 16 14 15 12 12 14 14 17 12 9 8 7 4
Wind_Direction
144 176 186 177 197 194 193 187 193 194 189 179 172 149 147 160 167 158 135 135 133 137 135 130 128 123 120 119 121 128 125 120
360 335 253 224 219 220 208 203 202 212 199 177 148 138 141 151 177 167 141 141 135 141 136 134 130 126 125 124 122 129 125 126
346 322 291 245 231 238 212 213 216 219 178 135 138 149 150 167 205 181 145 144 140 143 136 134 127 125 127 128 135 133 132 127
355 340 312 289 248 233 226 220 223 221 204 159 149 157 164 169 216 186 147 143 144 145 138 134 140 142 139 140 137 138 136 131
346 345 336 288 260 249 232 220 218 215 187 162 161 164 162 166 198 175 153 150 155 151 143 155 154 153 156 155 143 145 136 133
344 339 333 323 271 241 237 232 207 200 184 167 161 163 163 179 167 166 162 165 160 158 166 161 160 157 154 150 151 145 141 135
346 338 342 333 296 247 213 223 218 196 182 184 167 163 159 181 160 157 165 162 161 161 165 161 157 156 152 153 153 146 143 140
345 344 344 329 336 254 219 206 208 202 181 182 178 165 161 166 160 165 168 164 164 165 166 158 153 157 153 159 153 150 148 144
350 347 347 342 323 291 220 212 196 196 193 181 181 171 169 164 157 162 167 166 159 154 145 149 146 162 157 159 156 153 150 148
348 350 349 343 335 327 238 208 205 196 191 191 183 180 170 172 164 176 161 154 149 151 154 148 151 161 160 160 158 159 152 152
353 352 352 347 337 328 293 205 208 200 199 189 194 189 179 184 179 176 173 162 168 165 170 154 157 163 168 158 159 161 159 158
356 355 354 351 342 340 330 220 217 205 201 191 197 198 190 185 178 175 175 176 168 173 172 158 165 154 157 152 153 161 167 166
357 357 355 354 355 347 340 329 259 201 207 199 190 200 190 196 184 173 184 189 186 192 168 154 161 151 131 121 132 154 184 176
355 355 355 354 348 333 312 301 290 213 194 207 200 206 191 183 172 172 182 194 190 198 189 169 159 167 157 127 136 148 214 199
353 354 353 353 347 339 330 313 315 204 191 205 204 191 184 177 169 169 183 181 188 195 197 185 162 176 170 137 156 175 156 200
356 355 353 354 351 346 339 331 328 322 254 206 195 192 189 179 178 172 173 192 194 192 204 190 156 170 172 212 145 144 184 169
357 358 356 354 352 348 339 328 325 319 303 191 196 196 191 187 186 178 183 189 199 197 201 163 168 165 178 158 156 160 150 158
359 360 357 354 351 349 341 333 335 328 322 296 200 203 192 200 190 185 185 191 191 192 199 199 182 187 192 192 178 186 180 171
359 359 356 352 349 347 341 338 334 332 324 319 312 196 196 197 194 186 189 189 188 187 193 199 192 197 198 192 192 203 174 159
358 358 356 352 349 343 341 341 338 327 331 318 299 290 210 189 196 195 195 203 188 189 194 196 196 201 197 195 189 191 189 174